User: anonymous
Location: Bush Observatory
(40.2653°N, 94.3194°W)
Time: 11:07:59
(UTC-05:00)
Language:

Cosmos 1933 Rocket - Orbit

View from above orbital plane
View from above orbital plane
View from above satellite
View from above satellite

Ground track
Ground track

The orbit data is extracted from the following two-line orbital elements,

1 18959U 88020B   14263.75143243  .00000275  00000-0  30970-4 0  3570
2 18959 082.5363 125.4345 0017115 190.6310 214.1423 14.82857979432297
Epoch (UTC): 20 September 2014 18:02:03
Eccentricity: 0.0017115
inclination: 82.5363°
perigee height: 608 km
apogee height: 632 km
right ascension of ascending node: 125.4345°
argument of perigee: 190.6310°
revolutions per day: 14.82857979
mean anomaly at epoch: 214.1423°
orbit number at epoch: 43229

The dashed part of the orbit path shows where the satellite is in the earth's shadow,  

DLR